Regional Weather Roundup
Issued by NWS

Home | Current Version | Previous Version | Text Only | Print | Product List | Glossary On
Versions: 1 2 3 4 5 6 7 8 9 10 11 12 13 14 15 16 17 18 19 20 21 22 23 24 25 26 27 28 29 30 31 32 33 34 35 36 37 38 39 40 41 42 43 44 45 46 47 48 49 50
000
ASUS43 KLMK 041410
RWRKY
KENTUCKY REGIONAL WEATHER ROUNDUP
NATIONAL WEATHER SERVICE LOUISVILLE KY
1000 AM EDT FRI SEP 04 2015

NOTE "FAIR" INDICATES FEW OR NO CLOUDS BELOW 12,000 FEET
WITH NO SIGNIFICANT WEATHER AND/OR OBSTRUCTIONS TO VISIBILITY.

KYZ001>023-026-027-061>063-070>075-041500-
WESTERN AND SOUTH CENTRAL KENTUCKY

CITY           SKY/WX    TMP DP  RH WIND       PRES   REMARKS
PADUCAH        SUNNY     81  73  76 CALM      30.03S
HENDERSON      SUNNY     79  70  73 CALM      30.03S
OWENSBORO      SUNNY     80  72  76 CALM      30.05S
HOPKINSVILLE   SUNNY     79  69  72 E2        30.05R
BOWLING GREEN  SUNNY     77  71  82 CALM      30.06S
GLASGOW        SUNNY     79  68  69 CALM      30.06S
$$

KYZ024-025-028>034-038-045-046-053-041500-
NORTH CENTRAL KENTUCKY

CITY           SKY/WX    TMP DP  RH WIND       PRES   REMARKS
LOUISVILLE/SDF SUNNY     80  68  66 CALM      30.04S HAZE
LOUISVILLE/LOU SUNNY     80  70  71 CALM      30.05S HAZE
FORT KNOX      SUNNY     80  69  68 SE1       30.04S
$$

KYZ035>037-039>044-047>052-055>060-089>105-041500-
NORTHEAST KENTUCKY

CITY           SKY/WX    TMP DP  RH WIND       PRES   REMARKS
LEXINGTON      SUNNY     82  69  64 CALM      30.07S
COVINGTON      MOSUNNY   81  68  64 W5        30.05S
FRANKFORT      SUNNY     79  68  69 CALM      30.05F
$$

KYZ054-064>069-076>088-106>120-041500-
SOUTHEAST KENTUCKY

CITY           SKY/WX    TMP DP  RH WIND       PRES   REMARKS
JACKSON        SUNNY     75  68  78 CALM      30.09S
LONDON         SUNNY     76  66  71 CALM      30.09S
SOMERSET       SUNNY     73  70  88 CALM      30.09S
MIDDLESBORO    CLOUDY    67  66  99 CALM      30.10S FOG
MONTICELLO     SUNNY     77  72  84 CALM      30.10S
$$




USA.gov is the U.S. government's official web portal to all federal, state and local government web resources and services.